# Land Stadt Wetter Temperatur Luftdruck Luftfeuchtigkeit Sichtweite Windgeschwindigkeit Windrichtung Ortszeit
1 ru Werchojansk Clouds -3 1018 82 8957 5 190 02.08.2018 14:22
2 mn Uliastai Clear -3 1034 19 10000 9 315 02.08.2018 14:23
3 ru Jakutsk Clouds -1 1015 58 10000 14 60 02.08.2018 14:22
4 mn Ulaanbaatar Clouds 0 1025 59 10000 7 0 02.08.2018 14:23
5 ru Surgut Clear 1 1034 59 10000 14 200 02.08.2018 14:23
6 gl Nuuk Clouds 2 993 87 10000 9 60 02.08.2018 14:22
7 ru Amderma Clouds 3 1013 96 903 26 201 02.08.2018 14:23
8 fi Rovaniemi Clear 3 1007 93 10000 15 130 02.08.2018 14:21
9 ru Anadyr Clouds 4 1008 65 10000 14 80 02.08.2018 14:23
10 ar Ushuaia Clear 4 1022 60 10000 15 290 02.08.2018 14:22
11 no Hammerfest Clouds 4 1003 81 10000 17 90 02.08.2018 14:22
12 bo La Paz Clouds 5 1039 70 10000 13 80 02.08.2018 14:22
13 bo Potisi Clear 6 1021 72 10000 7 6 02.08.2018 14:22
14 ch Andermatt Rain 7 1023 96 6422 11 319 02.08.2018 14:23
15 us Nome Clear 7 1004 70 10000 7 180 02.08.2018 14:23
16 de Torfhaus Rain 7 1015 99 7653 14 234 02.08.2018 14:22
17 fi Helsinki Clouds 8 1008 89 10000 7 50 02.08.2018 14:21
18 us Fairbanks Clouds 8 1005 76 10000 0 0 02.08.2018 14:23
19 is Reykjavik Clouds 8 982 93 6000 44 250 02.08.2018 14:22
20 ar Esquel Clouds 9 1021 58 10000 0 70 02.08.2018 14:22
21 nz Wellington Clouds 9 1006 93 10000 39 180 02.08.2018 14:23
22 no Oslo Rain 9 1001 1 10000 5 34 02.08.2018 14:23
23 de Magdeburg Clear 10 1003 93 10000 13 268 02.08.2018 14:22
24 ca Montreal Clouds 10 1026 66 10000 28 30 02.08.2018 14:22
25 gb Glasgow Clouds 10 1013 87 10000 17 250 02.08.2018 14:21
26 de Berlin Clouds 10 1002 91 10000 20 240 02.08.2018 14:21
27 mg Antananarivo Clouds 10 1023 100 10000 7 150 02.08.2018 14:21
28 de Oberstdorf Clouds 10 1022 95 447 6 211 02.08.2018 14:21
29 de Flensburg Clear 11 1006 93 10000 22 260 02.08.2018 14:21
30 de Emden Clear 11 1011 90 10000 18 236 02.08.2018 14:21
31 de Kassel Clouds 11 1014 82 10000 11 210 02.08.2018 14:21
32 ru Moskau Clouds 11 1006 90 10000 22 238 02.08.2018 14:22
33 se Stockholm Clouds 11 1001 94 10000 6 100 02.08.2018 14:23
34 de Dresden Clear 11 1009 87 10000 15 250 02.08.2018 14:22
35 de Bremen Clear 11 1011 96 10000 15 230 02.08.2018 14:22
36 gb Manchester Clouds 11 1012 92 10000 6 210 02.08.2018 14:21
37 at Innsbruck Drizzle 11 1023 97 10000 4 0 02.08.2018 14:23
38 de Braunschweig Clear 11 1012 83 10000 11 230 02.08.2018 14:21
39 de Hamburg Rain 11 1010 98 10000 17 220 02.08.2018 14:21
40 ie Dublin Clouds 12 1014 84 10000 17 230 02.08.2018 14:21
41 de München Rain 12 1022 90 10000 6 227 02.08.2018 14:21
42 ad Andorra la Vella Clouds 12 1029 80 10000 3 48 02.08.2018 14:22
43 at Wien Clear 12 1019 79 10000 21 309 02.08.2018 14:22
44 de Hannover Clouds 12 1012 88 10000 19 250 02.08.2018 14:21
45 pe Cusco Clouds 12 1032 50 10000 11 290 02.08.2018 14:23
46 de Nürnberg Clouds 12 1018 87 10000 7 260 02.08.2018 14:21
47 de Hiddensee Clear 13 1006 85 10000 40 264 02.08.2018 14:21
48 de Frankfurt Rain 13 1016 92 10000 13 200 02.08.2018 14:22
49 et Addis Abeba Clouds 13 1026 82 10000 0 0 02.08.2018 14:23
50 de Trier Rain 13 1018 98 7309 12 212 02.08.2018 14:21
51 it Mailand Clear 13 1018 90 10000 3 248 02.08.2018 14:21
52 za Kapstadt Clear 13 1015 82 10000 7 20 02.08.2018 14:22
53 de Stuttgart Clouds 13 1020 91 10000 4 0 02.08.2018 14:22
54 es Madrid Clear 14 1009 54 10000 6 59 02.08.2018 14:23
55 gb London Clouds 14 1014 89 10000 19 250 02.08.2018 14:22
56 es Palma de Mallorca Clear 14 1027 94 10000 6 30 02.08.2018 14:22
57 ke Nairobi Clouds 14 1017 84 10000 7 58 02.08.2018 14:22
58 ua Kiew Clouds 14 992 90 10000 2 41 02.08.2018 14:21
59 ch Bern Clouds 14 1025 92 10000 10 245 02.08.2018 14:23
60 de Köln Rain 14 1013 89 10000 11 200 02.08.2018 14:21
61 uy Montevideo Clear 15 1022 76 10000 10 55 02.08.2018 14:22
62 de Helgoland Clear 15 1009 75 10000 38 281 02.08.2018 14:22
63 us New York Clouds 15 1014 90 10000 27 2 02.08.2018 14:22
64 us Chicago Clear 15 1024 73 10000 8 25 02.08.2018 14:23
65 bg Sofia Clouds 15 1016 95 10000 13 300 02.08.2018 14:21
66 de Freiburg Clouds 15 1020 87 10000 6 189 02.08.2018 14:22
67 us Denver Clouds 15 1017 76 10000 2 138 02.08.2018 14:21
68 it Rom Clear 15 1021 75 10000 4 110 02.08.2018 14:23
69 fr Paris Rain 16 1019 90 7000 13 220 02.08.2018 14:22
70 ar Buenos Aires Clear 16 1022 78 10000 11 120 02.08.2018 14:22
71 cn Lhasa Clouds 16 1010 40 10000 11 189 02.08.2018 14:22
72 tr Ankara Clear 16 1014 63 10000 4 20 02.08.2018 14:23
73 au Sydney Clouds 16 1019 66 10000 13 160 02.08.2018 14:22
74 pt Lissabon Clear 17 1020 67 10000 20 30 02.08.2018 14:22
75 fr Nizza Clear 17 1018 79 10000 9 340 02.08.2018 14:22
76 fr Bordeaux Clouds 17 1026 94 10000 13 200 02.08.2018 14:21
77 cl Santiago Clear 18 987 56 10000 2 179 02.08.2018 14:23
78 mx Mexiko Stadt Clear 18 1019 47 10000 11 330 02.08.2018 14:21
79 es Barcelona Clear 18 1025 68 10000 22 320 02.08.2018 14:22
80 es Sevilla Clear 18 1021 59 10000 22 80 02.08.2018 14:22
81 es Tarifa Clear 18 1021 77 10000 46 87 02.08.2018 14:21
82 bg Warna Clouds 18 1008 92 10000 13 210 02.08.2018 14:21
83 in Jagatsukh Clear 18 1017 52 10000 4 23 02.08.2018 14:22
84 af Kabul Clear 19 1013 21 10000 4 44 02.08.2018 14:21
85 cn Peking Clouds 19 1012 74 10000 1 314 02.08.2018 14:23
86 iq Bagdad Clear 20 1006 42 10000 6 200 02.08.2018 14:22
87 au Perth Clouds 20 1015 46 10000 24 100 02.08.2018 14:21
88 ec San Cristobal Clouds 20 1013 89 10000 20 165 02.08.2018 14:22
89 it Palermo Clear 21 1003 40 10000 3 221 02.08.2018 14:22
90 cd Kisangani Clouds 21 1013 99 10000 3 107 02.08.2018 14:23
91 br Rio de Janeiro Clouds 21 1016 86 10000 7 180 02.08.2018 14:22
92 ma Marrakesch Clouds 22 1015 49 10000 7 120 02.08.2018 14:23
93 ma Casablanca Clouds 22 1015 64 10000 10 80 02.08.2018 14:23
94 kr Seoul Clear 22 1017 60 10000 15 110 02.08.2018 14:21
95 es Las Palmas de Gran Canaria Clouds 22 1016 78 10000 17 26 02.08.2018 14:21
96 us Los Angeles Clear 22 1016 70 10000 13 260 02.08.2018 14:22
97 tr Alanya Clear 23 1012 46 10000 12 309 02.08.2018 14:22
98 sa Riad Clear 23 1009 19 10000 3 314 02.08.2018 14:21
99 ck Avarua Clouds 23 1016 56 10000 20 110 02.08.2018 14:22
100 gr Athen Clear 24 1011 78 10000 10 234 02.08.2018 14:22
101 eg Kairo Clouds 24 1013 83 6000 11 20 02.08.2018 14:22
102 br Manaus Clouds 25 1013 88 10000 11 190 02.08.2018 14:21
103 us Miami Clouds 25 1012 89 10000 8 60 02.08.2018 14:23
104 do Santo Domingo Clouds 25 1017 96 10000 6 213 02.08.2018 14:21
105 mx Veracruz Clouds 25 1014 77 10000 14 5 02.08.2018 14:21
106 in Nagpur Haze 25 1008 78 3000 9 320 02.08.2018 14:21
107 tr Istanbul Clear 25 1007 53 10000 11 230 02.08.2018 14:23
108 au Alice Springs Clouds 26 1013 26 10000 19 300 02.08.2018 14:21
109 vn Hanoi Clouds 26 1011 92 7895 7 99 02.08.2018 14:21
110 us Honolulu Clouds 26 1012 76 10000 13 30 02.08.2018 14:22
111 mv Male Rain 26 1012 83 7000 33 290 02.08.2018 14:23
112 bs Nassau Rain 27 1011 89 10000 6 70 02.08.2018 14:22
113 jp Nagasaki Clouds 28 1018 65 10000 11 160 02.08.2018 14:21
114 jp Tokio Clouds 28 1020 45 10000 17 70 02.08.2018 14:22
115 in Mumbai Haze 28 1010 89 3000 6 280 02.08.2018 14:22
116 th Bangkok Clouds 29 1009 64 10000 3 322 02.08.2018 14:21
117 qa Doha Clear 29 1006 56 10000 7 260 02.08.2018 14:23
118 sb Honiara Clouds 30 1010 69 10000 6 21 02.08.2018 14:22
119 ph Manila Clouds 30 1009 67 10000 11 110 02.08.2018 14:21
120 fj Suva Clouds 30 1010 66 10000 24 70 02.08.2018 14:21
121 us Tucson Clear 30 1010 38 10000 13 190 02.08.2018 14:21
122 ae Dubai Clear 31 1007 66 10000 7 140 02.08.2018 14:21
123 pg Port Moresby Haze 31 1005 66 10000 19 150 02.08.2018 14:21
124 cn Shanghai Clear 32 1007 66 10000 18 170 02.08.2018 14:21
125 au Darwin Clear 32 1008 46 10000 7 360 02.08.2018 14:22
126 id Jakarta Clouds 32 1007 62 10000 17 355 02.08.2018 14:22
127 us Las Vegas Clouds 33 1007 17 10000 20 230 02.08.2018 14:21
128 us Death Valley Clear 33 1007 15 10000 8 178 02.08.2018 14:22